Regional Weather Roundup
Issued by NWS Kansas City/Pleasant Hill, MO

Home | Current Version | Previous Version | Graphics & Text | Print | Product List | Glossary Off
Versions: 1 2 3 4 5 6 7 8 9 10 11 12 13 14 15 16 17 18 19 20 21 22 23 24 25 26 27 28 29 30 31 32 33 34 35 36 37 38 39 40 41 42 43 44 45 46 47 48 49 50

000
ASUS43 KEAX 221510
RWREAX

WEATHER ROUNDUP FOR EASTERN KANSAS AND NORTHWEST MISSOURI
NATIONAL WEATHER SERVICE KANSAS CITY/PLEASANT HILL MO
1000 AM CDT TUE JUL 22 2014

KSZ040-057-103>105-MOZ028-029-037-043-221600-
...KANSAS CITY METROPOLITAN AREA...

CITY           SKY/WX    TMP DP  RH WIND       PRES   REMARKS
K.C. INTL      MOSUNNY   82  76  81 SW13      30.03S
K.C. DOWNTOWN  SUNNY     85  75  72 W10       30.02F HX  93
LEES SUMMIT    SUNNY     82  74  76 SW10      30.05S
OLATHE - IXD   SUNNY     83  74  74 SW15      30.05S
OLATHE - OJC   SUNNY     82  75  79 SW10      30.04S
LAWRENCE       SUNNY     86  75  69 SW8       30.03S HX  95

$$

MOZ001>008-011>017-020>025-030>033-038>040-044>046-053-054-221600-
...NORTHERN AND CENTRAL MISSOURI...

CITY           SKY/WX    TMP DP  RH WIND       PRES   REMARKS
ST. JOSEPH     SUNNY     85  77  77 SW9       30.01S HX  95
MOSBY          SUNNY     82  73  74 SW9       30.02S
WHITEMAN AFB   NOT AVBL
CLINTON        SUNNY     82  73  74 SW10      30.07S
SEDALIA        SUNNY     83  73  72 SW13      30.06F
WARSAW         NOT AVBL
MARSHALL       SUNNY     86  75  70 S13       30.05R HX  95
CHILLICOTHE      N/A     83  75  77 SW8       30.01S HX  90
MOBERLY        SUNNY     82  70  65 SW10      30.05F
KIRKSVILLE     MOSUNNY   77  72  84 SW5       30.03R

$$

MOZ041-047>049-056>058-063>065-088>090-097-221600-
...EASTERN AND SOUTHERN MISSOURI...

CITY           SKY/WX    TMP DP  RH WIND       PRES   REMARKS
ST. LOUIS INTL MOSUNNY   83  67  58 SW7       30.09R
SPIRIT OF STL  SUNNY     81  67  62 W8        30.06F
COLUMBIA       SUNNY     82  73  74 SW10      30.08R
JEFFERSON CITY SUNNY     81  70  69 SW3       30.06S
MEXICO         SUNNY     82  77  83 SW6       30.06S HX  91
HANNIBAL       PTSUNNY   77  68  73 S5        30.06R
ROLLA          SUNNY     80  69  69 SW9       30.09S
LEBANON        SUNNY     82  72  69 SW7       30.11F
OSAGE BEACH    SUNNY     82  70  65 SW7       30.08S
SPRINGFIELD    SUNNY     80  71  74 SW10      30.11F
BRANSON        SUNNY     86  70  58 CALM      30.14S HX  90
NEVADA         SUNNY     81  73  78 S10G16    30.08F
JOPLIN         SUNNY     83  71  67 SW9       30.11F
WEST PLAINS    SUNNY     78  68  71 SW5       30.13F
MALDEN         SUNNY     82  68  61 CALM      30.10S

$$

IAZ060-094-KSZ022-034>040-054-083-096-NEZ052-066-093-221600-
...KANSAS...SOUTHEAST NEBRASKA AND IOWA...

CITY           SKY/WX    TMP DP  RH WIND       PRES   REMARKS
TOPEKA         SUNNY     85  76  74 W8        30.04R HX  94
MANHATTAN      SUNNY     88  73  61 W12       30.04R HX  95
EMPORIA        SUNNY     87  74  64 SW10      30.05F HX  95
CHANUTE        SUNNY     83  73  72 SW16      30.08F
WICHITA        MOSUNNY   85  74  69 S12       30.07F HX  92
OMAHA          MOSUNNY   86  75  69 NE12      29.97F HX  95
LINCOLN        SUNNY     87  74  64 NE9       30.00F HX  95
FALLS CITY     SUNNY     87  75  67 SW10      29.99F HX  96
LAMONI         MOSUNNY   81  75  82 W13       30.01R
DES MOINES     PTSUNNY   86  76  71 W6        29.95R HX  96

$$



USA.gov is the U.S. government's official web portal to all federal, state and local government web resources and services.